When you browse on this site, cookies collect data to enhance your experience and personalize the content and advertising you see.
Visit our Privacy Policy to learn more. By continuing to use the site, you agree to this use of cookies and data.
  • In Sweden
  • List of Countries
  • For 7 days
  • Water Temperature
  • Weather Map
  • Weather Widgets
  • user-avatar
    Login

    Hourly Weather Provedischi

    Today, 16 December, Monday

    Time Temperature Precipitation Wind Pressure Humidity
    00:00 0°C° 0 mm 4 mps 741 mmHg 89%
    01:00 0°C° 0 mm 4 mps 741 mmHg 91%
    02:00 0°C° 0 mm 5 mps 741 mmHg 92%
    03:00 0°C° 0.1 mm 5 mps 741 mmHg 91%
    04:00 +1°C° 0.1 mm 5 mps 740 mmHg 89%
    05:00 +1°C° 0.1 mm 5 mps 740 mmHg 87%
    06:00 +1°C° 0.1 mm 5 mps 740 mmHg 87%
    07:00 +1°C° 0.1 mm 5 mps 740 mmHg 86%
    08:00 +1°C° 0.1 mm 6 mps 739 mmHg 85%
    09:00 +2°C° 0.3 mm 6 mps 740 mmHg 84%
    10:00 +2°C° 0.3 mm 6 mps 740 mmHg 83%
    11:00 +2°C° 0.3 mm 7 mps 740 mmHg 82%
    12:00 +2°C° 0 mm 7 mps 741 mmHg 80%
    13:00 +2°C° 0 mm 7 mps 742 mmHg 78%
    14:00 +2°C° 0 mm 7 mps 742 mmHg 75%
    15:00 +2°C° 0 mm 6 mps 743 mmHg 75%
    16:00 +2°C° 0 mm 6 mps 744 mmHg 75%
    17:00 +1°C° 0 mm 5 mps 745 mmHg 75%
    18:00 +1°C° 0 mm 5 mps 746 mmHg 79%
    19:00 +1°C° 0 mm 4 mps 746 mmHg 82%
    20:00 +1°C° 0 mm 4 mps 747 mmHg 86%
    21:00 +2°C° 0 mm 3 mps 747 mmHg 87%
    22:00 +2°C° 0 mm 3 mps 748 mmHg 87%
    23:00 +2°C° 0 mm 3 mps 748 mmHg 88%

    Tomorrow, 17 December, Tuesday

    Time Temperature Precipitation Wind Pressure Humidity
    00:00 +2°C° 0 mm 3 mps 748 mmHg 89%
    01:00 +1°C° 0 mm 3 mps 748 mmHg 90%
    02:00 +1°C° 0 mm 3 mps 749 mmHg 91%
    03:00 +1°C° 0 mm 3 mps 748 mmHg 90%
    04:00 +1°C° 0 mm 3 mps 748 mmHg 89%
    05:00 0°C° 0 mm 4 mps 747 mmHg 87%
    06:00 +1°C° 0.2 mm 3 mps 747 mmHg 90%
    07:00 +1°C° 0.2 mm 3 mps 747 mmHg 92%
    08:00 +2°C° 0.2 mm 3 mps 746 mmHg 94%
    09:00 +2°C° 0.2 mm 3 mps 747 mmHg 94%
    10:00 +2°C° 0.2 mm 3 mps 747 mmHg 93%
    11:00 +2°C° 0.2 mm 3 mps 747 mmHg 93%
    12:00 +3°C° 0.1 mm 2 mps 747 mmHg 93%
    13:00 +4°C° 0.1 mm 2 mps 747 mmHg 93%
    14:00 +4°C° 0.1 mm 2 mps 747 mmHg 93%
    15:00 +3°C° 0 mm 2 mps 747 mmHg 95%
    16:00 +3°C° 0 mm 2 mps 747 mmHg 96%
    17:00 +4°C° 0 mm 1 mps 747 mmHg 97%
    18:00 +4°C° 0 mm 1 mps 748 mmHg 97%
    19:00 +4°C° 0 mm 1 mps 748 mmHg 97%
    20:00 +4°C° 0 mm 1 mps 748 mmHg 97%
    21:00 +4°C° 0 mm 1 mps 748 mmHg 97%
    22:00 +4°C° 0 mm 1 mps 748 mmHg 96%
    23:00 +4°C° 0 mm 1 mps 748 mmHg 96%

    Day after tomorrow, 18 December, Wednesday

    Time Temperature Precipitation Wind Pressure Humidity
    00:00 +3°C° 0 mm 2 mps 748 mmHg 96%
    01:00 +4°C° 0 mm 2 mps 748 mmHg 96%
    02:00 +4°C° 0 mm 2 mps 748 mmHg 96%
    03:00 +4°C° 0 mm 2 mps 748 mmHg 96%
    04:00 +4°C° 0 mm 2 mps 748 mmHg 96%
    05:00 +4°C° 0 mm 2 mps 747 mmHg 96%
    06:00 +3°C° 0 mm 3 mps 747 mmHg 96%
    07:00 +3°C° 0 mm 3 mps 747 mmHg 95%
    08:00 +3°C° 0 mm 3 mps 746 mmHg 95%
    09:00 +3°C° 0 mm 3 mps 746 mmHg 94%
    10:00 +3°C° 0 mm 3 mps 746 mmHg 92%
    11:00 +3°C° 0 mm 4 mps 746 mmHg 91%
    12:00 +4°C° 0 mm 4 mps 746 mmHg 90%
    13:00 +4°C° 0 mm 3 mps 745 mmHg 89%
    14:00 +4°C° 0 mm 3 mps 745 mmHg 88%
    15:00 +4°C° 0 mm 4 mps 745 mmHg 89%
    16:00 +4°C° 0 mm 4 mps 744 mmHg 89%
    17:00 +4°C° 0 mm 4 mps 744 mmHg 90%
    18:00 +4°C° 0 mm 4 mps 744 mmHg 90%
    19:00 +5°C° 0 mm 4 mps 744 mmHg 90%
    20:00 +5°C° 0 mm 5 mps 744 mmHg 90%
    21:00 +5°C° 0 mm 5 mps 744 mmHg 87%
    22:00 +5°C° 0 mm 5 mps 744 mmHg 83%
    23:00 +5°C° 0 mm 5 mps 744 mmHg 80%

    19 December, Thursday

    Time Temperature Precipitation Wind Pressure Humidity
    00:00 +3°C° 0 mm 5 mps 745 mmHg 80%
    01:00 +2°C° 0 mm 5 mps 745 mmHg 81%
    02:00 +1°C° 0 mm 5 mps 745 mmHg 81%
    03:00 +1°C° 0 mm 5 mps 745 mmHg 81%
    04:00 +1°C° 0 mm 5 mps 746 mmHg 80%
    05:00 +1°C° 0 mm 5 mps 746 mmHg 80%
    06:00 +1°C° 0 mm 5 mps 746 mmHg 80%
    07:00 +1°C° 0 mm 6 mps 747 mmHg 80%
    08:00 +1°C° 0 mm 6 mps 747 mmHg 80%
    09:00 +1°C° 0 mm 6 mps 748 mmHg 79%
    10:00 +1°C° 0 mm 6 mps 748 mmHg 78%
    11:00 +1°C° 0 mm 5 mps 749 mmHg 76%
    12:00 +1°C° 0 mm 5 mps 749 mmHg 77%
    13:00 +1°C° 0 mm 4 mps 750 mmHg 77%
    14:00 +1°C° 0 mm 4 mps 750 mmHg 78%
    15:00 0°C° 0 mm 4 mps 751 mmHg 81%
    16:00 +1°C° 0 mm 3 mps 751 mmHg 85%
    17:00 0°C° 0 mm 3 mps 751 mmHg 88%
    18:00 0°C° 0 mm 3 mps 752 mmHg 90%
    19:00 -1°C° 0 mm 2 mps 752 mmHg 92%
    20:00 -1°C° 0 mm 2 mps 752 mmHg 94%
    21:00 -1°C° 0 mm 2 mps 752 mmHg 94%
    22:00 -1°C° 0 mm 2 mps 753 mmHg 95%
    23:00 0°C° 0 mm 1 mps 753 mmHg 95%

    20 December, Friday

    Time Temperature Precipitation Wind Pressure Humidity
    00:00 0°C° 0 mm 1 mps 753 mmHg 95%
    01:00 0°C° 0 mm 1 mps 753 mmHg 94%
    02:00 0°C° 0 mm 1 mps 753 mmHg 94%
    03:00 0°C° 0 mm 1 mps 753 mmHg 93%
    04:00 0°C° 0 mm 1 mps 753 mmHg 93%
    05:00 0°C° 0 mm 1 mps 753 mmHg 92%
    06:00 0°C° 0 mm 1 mps 753 mmHg 91%
    07:00 0°C° 0 mm 1 mps 753 mmHg 90%
    08:00 0°C° 0 mm 1 mps 753 mmHg 89%
    09:00 +1°C° 0 mm 1 mps 753 mmHg 85%
    10:00 +1°C° 0 mm 1 mps 753 mmHg 82%
    11:00 +2°C° 0 mm 1 mps 753 mmHg 79%
    12:00 +2°C° 0 mm 1 mps 753 mmHg 78%
    13:00 +2°C° 0 mm 1 mps 752 mmHg 77%
    14:00 +2°C° 0 mm 1 mps 752 mmHg 76%
    15:00 +1°C° 0 mm 1 mps 752 mmHg 78%
    16:00 +1°C° 0 mm 1 mps 752 mmHg 80%
    17:00 0°C° 0 mm 1 mps 752 mmHg 82%
    18:00 -2°C° 0 mm 2 mps 751 mmHg 82%
    19:00 -2°C° 0 mm 2 mps 751 mmHg 81%
    20:00 -2°C° 0 mm 2 mps 751 mmHg 80%
    21:00 -2°C° 0 mm 2 mps 751 mmHg 79%
    22:00 -2°C° 0 mm 2 mps 750 mmHg 77%
    23:00 -2°C° 0 mm 2 mps 750 mmHg 76%

    21 December, Saturday

    Time Temperature Precipitation Wind Pressure Humidity
    00:00 -2°C° 0 mm 2 mps 750 mmHg 74%
    01:00 -2°C° 0 mm 3 mps 750 mmHg 73%
    02:00 -2°C° 0 mm 3 mps 749 mmHg 71%
    03:00 -2°C° 0 mm 3 mps 749 mmHg 70%
    04:00 -2°C° 0 mm 3 mps 749 mmHg 69%
    05:00 -2°C° 0 mm 3 mps 749 mmHg 67%
    06:00 -2°C° 0 mm 3 mps 748 mmHg 66%
    07:00 -2°C° 0 mm 3 mps 748 mmHg 64%
    08:00 -2°C° 0 mm 3 mps 748 mmHg 62%
    09:00 -1°C° 0 mm 3 mps 748 mmHg 60%
    10:00 -1°C° 0 mm 3 mps 748 mmHg 57%
    11:00 -1°C° 0 mm 3 mps 748 mmHg 55%
    12:00 0°C° 0 mm 3 mps 748 mmHg 54%
    13:00 0°C° 0 mm 3 mps 748 mmHg 54%
    14:00 0°C° 0 mm 3 mps 747 mmHg 53%
    15:00 0°C° 0 mm 3 mps 747 mmHg 55%
    16:00 0°C° 0 mm 3 mps 747 mmHg 58%
    17:00 -2°C° 0 mm 4 mps 747 mmHg 60%
    18:00 -2°C° 0 mm 4 mps 747 mmHg 63%
    19:00 -1°C° 0 mm 4 mps 746 mmHg 65%
    20:00 -1°C° 0 mm 4 mps 746 mmHg 68%
    21:00 -1°C° 0 mm 4 mps 746 mmHg 70%
    22:00 -1°C° 0 mm 4 mps 746 mmHg 73%
    23:00 -1°C° 0 mm 4 mps 746 mmHg 75%
    Show more